星链-5036 (STARLINK-5036 )

导读

STARLINK-5036是美国太空探索技术公司星链星座的成员,于2022年9月24日发射升空,归属星链互联网卫星组网计划,该计划旨在为全球提供覆盖广泛的低延迟高速卫星互联网服务。作为低轨通信卫星,它运行在近地轨道,承担信号转发与网络接入任务,助力星链完成全球网络覆盖布局。

基本信息
目录编号:
53917
目录名称:
STARLINK-5036
国际标识:
2022-119AH
轨道中心:
EARTH
卫星名称:
星链-5036
卫星全名:
星链-5036 (STARLINK-5036 )
卫星状态:
在轨 (已飞行1360 天)
发射日期:
2022-09-24 UTC
国别 :
美国 (US)
星等 :
--
轨道信息
数据来源 国际轨道数据
星历时间: 2026-06-15T06:00:03+0800
9小时前
查看轨道信息
半长轴: 6754.011km
偏心率: 0.0001046
轨道倾角: 53.217°
近地点辐角 68.084°
升交点赤经 223.919°
平近点角 91.766°
近地点: 375.167km
远地点: 376.581km
周期: 92.067分钟
每日圈数: 15.640845
详细信息
固有亮度:
5
最大亮度:
2.5
卫星平台:
Starlink v1.5
覆盖范围:
全球
运营商:
太空探索技术公司
运营商所在国:
美国
制造商(研发单位):
太空探索技术公司
制造商所在国:
美国
使用方式:
暂无
卫星简介
星链(Starlink)计划是由太空探索技术公司(SpaceX)提出的一个巨型低轨卫星互联网星座项目,计划在2019年至2024年间在太空搭建由约1.2万颗卫星组成的“星链”网络,其中1584颗将部署在地球上空550千米处的近地轨道,并从2020年开始工作。该卫星仍在工作。
2D轨道图
3D轨道图
轨道高度分析图
轨道倾角分析图
轨道综合分析图
查看轨道综合分析图